This is the latest recevied weather packets stored in our database for station/object W0VI. If no packets are shown the sender has not sent any weather packets the latest 10 day(s).
| Time | Temp. | Humidity | Pressure | Rain* | Wind** | Luminosity | Snow |
|---|---|---|---|---|---|---|---|
| 1787363287 | 22.78° C | 73% | 1015.7 hPa | 0 mm | - | 0 W/m² | - |
| 1787362982 | 22.78° C | 73% | 1016 hPa | 0 mm | - | 0 W/m² | - |
| 1787362677 | 22.78° C | 72% | 1015.6 hPa | 0 mm | - | 0 W/m² | - |
| 1787362373 | 23.33° C | 71% | 1015.8 hPa | 0 mm | - | 0 W/m² | - |
| 1787362072 | 23.33° C | 71% | 1015.7 hPa | 0 mm | - | 0 W/m² | - |
| 1787361767 | 23.33° C | 70% | 1015.2 hPa | 0 mm | - | 0 W/m² | - |
| 1787361467 | 23.89° C | 70% | 1015.5 hPa | 0 mm | - | 0 W/m² | - |
| 1787361161 | 23.89° C | 69% | 1015.6 hPa | 0 mm | - | 1 W/m² | - |
| 1787360856 | 23.89° C | 68% | 1015.5 hPa | 0 mm | - | 2 W/m² | - |
| 1787360551 | 24.44° C | 67% | 1015.5 hPa | 0 mm | - | 3 W/m² | - |
| 1787360246 | 24.44° C | 66% | 1015.5 hPa | 0 mm | - | 6 W/m² | - |
| 1787359941 | 24.44° C | 65% | 1015.4 hPa | 0 mm | - | 9 W/m² | - |
| 1787359637 | 25° C | 65% | 1015.6 hPa | 0 mm | - | 12 W/m² | - |
| 1787359333 | 25° C | 63% | 1015.6 hPa | 0 mm | - | 15 W/m² | - |
| 1787359028 | 25.56° C | 62% | 1015.6 hPa | 0 mm | - | 20 W/m² | - |
| 1787358723 | 25.56° C | 62% | 1015.7 hPa | 0 mm | - | 31 W/m² | - |
| 1787358416 | 25.56° C | 61% | 1015.5 hPa | 0 mm | - | 47 W/m² | - |
| 1787358112 | 25.56° C | 61% | 1015.6 hPa | 0 mm | - | 55 W/m² | - |
| 1787357808 | 26.11° C | 61% | 1015.4 hPa | 0 mm | - | 66 W/m² | - |
| 1787357503 | 26.11° C | 60% | 1015.5 hPa | 0 mm | - | 73 W/m² | - |
| 1787357192 | 25.56° C | 61% | 1015.6 hPa | 0 mm | - | 59 W/m² | - |
| 1787356889 | 25.56° C | 61% | 1015.6 hPa | 0 mm | - | 52 W/m² | - |
* Rain latest hour (hover to see other rain measurements)
** Current wind speed in m/s (hover to see current wind gust speed)